www.pogodaiklimat.ru

Погода и климат >> Архив погоды >> Канада >> London


ПОГОДА в London

  • Прогноз погоды в London
  • Монитор погоды в London
  • Климат города

АРХИВ ПОГОДЫ в London

Время (UTC), дата Ветер
(напр.,м/с)
 
Видим.   Явления Облачность Т
(С)
Тd
(С)
f
(%)
Тe
(С)
Тes
(С)
Комфортность P
(гПа)
Po
(гПа)
Тmin
(С)
Tmax
(С)
R
(мм)
R24
(мм)
S
(см)
12 12.12 Ю 1 16 км 10/10 600 м
[]
-1.8 -3.1 91 -4 -4 1020.0 985.6 -2.8 -1.9
15 12.12 ЮВ 3 11 км 10/10 600 м
[]
-0.7 -2.9 85 -6 -6 1019.4 985.1
18 12.12 ЮВ 7 16 км 10/10 600 м
[]
+0.4 -3.6 74 -6 -6 1017.0 982.8 -2.8 +0.4
21 12.12 ЮВ 7 11 км 9/9 600 м
[]
+0.2 -3.2 78 -7 -7 1015.7 981.6
00 13.12 В 6 11 км 10/0 2000 м
[]
0.0 -2.7 82 -7 -7 1015.5 981.4 -2.1 +0.6
03 13.12 В 6 19 км 10/10 1000 м
[]
0.0 -2.3 84 -7 -7 1015.9 981.8
06 13.12 В 6 16 км 10/10 1000 м
[]
-0.4 -2.4 86 -7 -7 1016.0 981.9 -2.1 +0.6
09 13.12 В 4 12 км 10/10 100 м
[]
-0.6 -1.5 94 -6 -6 1017.4 983.3
12 13.12 В 3 9000 м 10/10 600 м
[]
0.0 -1.0 93 -4 -4 1019.5 985.3 -1.0 +0.6
15 13.12 В 3 6000 м 5/5 200 м
[]
+0.4 -0.8 92 -4 -3 1021.9 987.6
18 13.12 С 1 9000 м 8/8 600 м
[]
+3.9 +0.7 80 +4 +5 1022.1 987.9 -1.1 +3.9
21 13.12 ЮВ 4 12 км 9/9 300 м
[]
+2.6 +0.6 87 -2 -2 1023.5 989.2
00 14.12 В 3 12 км 1/0
[]
-1.6 -2.5 94 -6 -6 1024.6 990.2 -1.9 +4.6
03 14.12 В 2 4800 м 3/0
[]
-1.7 -2.2 96 -6 -6 1024.8 990.4
06 14.12 В 3 1200 м ясно -1.5 -1.7 99 -6 -6 1023.7 989.4 -2.0 +4.6
09 14.12 В 2 2400 м 6/6 1000 м
[]
+0.1 -0.2 98 -4 -4 1023.6 989.4
12 14.12 ЮВ 3 3200 м 8/8 1500 м
[]
+1.1 +0.9 99 -4 -4 1022.9 988.6 -2.0 +4.6
15 14.12 В 3 3200 м 6/6 200 м
[]
+2.4 +2.2 99 -2 -1 1023.8 989.5
18 14.12 Ю 4 8000 м 10/0 2000 м
[]
+4.3 +3.0 91 -0 +1 1021.2 987.0 -2.0 +4.3
21 14.12 ЮЗ 3 16 км 9/9 600 м
[]
+5.5 +3.4 86 +2 +2 1021.7 987.6
00 15.12 ЮЗ 1 16 км 9/9 300 м
[]
+4.5 +3.8 95 +3 +3 1022.5 988.4 -1.8 +5.9
03 15.12 СЗ 3 400 м 5/5 <50 м
[]
+3.2 +3.1 99 -1 -1 1022.5 988.4
06 15.12 З 1 400 м н/о +0.9 +0.8 99 -1 -1 1022.2 988.1 -1.8 +5.9
09 15.12 С 3 600 м 5/5 50 м
[]
0.0 -0.2 99 -5 -5 1023.3 989.2
12 15.12 СВ 3 24 км 10/0
[]
+0.3 -0.2 96 -5 -5 1023.1 988.9 -0.6 +5.9
15 15.12 В 4 24 км 10/0
[]
+1.6 -1.6 79 -3 -3 1023.6 989.4
18 15.12 В 5 24 км 10/0
[]
+2.7 -0.2 81 -3 -2 1021.8 987.6 -0.6 +2.7
21 15.12 СВ 4 24 км 10/0
[]
+2.3 -0.2 84 -3 -3 1022.5 988.3
00 16.12 В 5 24 км 10/0
[]
+1.3 -0.9 85 -5 -5 1022.7 988.4 -0.6 +2.7
03 16.12 В 5 24 км 10/0
[]
+0.5 -0.6 92 -6 -6 1022.5 988.3
06 16.12 В 6 24 км 5/0
[]
+0.1 -1.0 92 -6 -6 1019.7 985.6 -0.6 +2.7
09 16.12 В 5 24 км 9/9 300 м
[]
+0.6 -0.4 93 -6 -6 1018.2 984.1
12 16.12 В 4 24 км 10/10 300 м
[]
+0.8 -0.3 92 -5 -5 1018.8 984.7 -0.3 +2.7
15 16.12 В 5 19 км 9/9 100 м
[]
+1.6 +0.4 92 -4 -4 1018.4 984.3
18 16.12 В 1 11 км 8/0
[]
+4.0 +0.9 80 +3 +5 1015.7 981.8 -0.3 +4.4
21 16.12 ЮВ 3 24 км 5/5 300 м
[]
+5.4 +1.7 77 +2 +3 1015.0 981.2
00 17.12 ЮЗ 3 24 км 3/0
[]
+0.6 -0.3 94 -4 -4 1015.5 981.5 -0.3 +6.4
03 17.12 ЮЗ 4 8000 м 8/0
[]
-0.2 -0.4 99 -6 -6 1014.1 980.1
06 17.12 З 3 9000 м ясно -1.1 -1.7 96 -6 -6 1012.4 978.5 -1.6 +6.4
09 17.12 З 4 9000 м 10/10 300 м
[]
-0.3 -1.2 94 -6 -6 1011.0 977.3
12 17.12 З 4 16 км 8/8 300 м
[]
+0.5 -0.7 92 -5 -5 1012.2 978.3 -1.6 +6.4
15 17.12 З 5 24 км 10/10 600 м
[]
+1.0 -2.5 77 -4 -4 1014.6 980.6
18 17.12 СЗ 6 24 км 10/10 600 м
[]
+0.6 -3.3 75 -6 -6 1015.1 981.0 -1.6 +1.1
21 17.12 СЗ 8 24 км 10/10 600 м
[]
0.0 -4.1 74 -7 -7 1017.2 983.1
00 18.12 СЗ 7 24 км 10/10 600 м
[]
-0.2 -5.2 69 -7 -7 1019.8 985.6 -1.5 +1.1
03 18.12 СЗ 4 24 км 10/10 600 м
[]
-0.6 -5.2 71 -6 -6 1020.1 985.9
06 18.12 СЗ 4 24 км 10/10 600 м
[]
-0.4 -5.0 71 -5 -5 1020.5 986.3 -1.5 +1.1
09 18.12 С 5 24 км 10/10 1000 м
[]
-1.1 -6.7 66 -7 -7 1022.2 987.9
12 18.12 СЗ 3 24 км 9/9 600 м
[]
-2.9 -7.5 71 -7 -7 1023.6 989.1 -3.0 +1.1
15 18.12 С 2 24 км 5/5 600 м
[]
-1.2 -6.3 68 -4 -3 1024.7 990.3
18 18.12 СЗ 3 24 км 5/5 600 м
[]
-0.3 -6.6 62 -5 -3 1023.7 989.3 -3.5 +0.8
21 18.12 З 2 24 км 4/4 600 м
[]
-0.2 -6.0 65 -4 -3 1022.9 988.5
00 19.12 Ю 2 24 км 4/0
[]
-2.6 -6.0 77 -7 -7 1022.0 987.5 -3.5 +1.0
03 19.12 Ю 2 24 км 9/0
[]
-3.3 -6.0 82 -7 -7 1021.5 987.1
06 19.12 Ю 5 24 км 4/0
[]
-1.9 -4.0 86 -8 -8 1018.9 984.6 -4.0 +1.0

 

Местоположение метеостанции London (Канада): широта 43.03 долгота -81.15 высота над уровнем моря 278 м.

В архиве по умолчанию представлена погода в London за последнюю неделю. Архивные данные за месяц целиком и за предыдущие месяцы, начиная с января 2011 года, Вы можете получить, выбрав интересующий диапазон дат из раскрывающегося списка и нажав кнопку "Ввод!".


*Определитесь, кто Вы:
робот инопланетянин человек

Внимание! Время в таблицах - всемирное. Для получения местного времени необходимо прибавить поправку, которая в London равна -5 ч.

Смотрите также архив погоды в соседних городах и на ближайших метеорологических станциях:

Погода в London Cs (Канада) (1 км)
Погода в Delhi (Канада) (52 км)
Погода в Brantford Airport (Канада) (68 км)
Погода в Simcoe (Канада) (74 км)
Погода в Waterloo Wellington (Канада) (78 км)
Погода в Ridgetown Rcs (Канада) (88 км)
Погода в Elora Rcs (Канада) (91 км)
Погода в Sarnia Climate (Канада) (94 км)
Погода в Goderich (Канада) (94 км)
Погода в Guelph Turfgrass (Канада) (95 км)

Пояснения к столбцам:

Ветер - указаны скорость ветра в м/с - средняя за 10 мин, порывы в срок и между сроками (в фигурных скобках) и направление, откуда дует ветер: С - северный, СВ - северо-восточный, В - восточный, ЮВ - юго-восточный, Ю - южный, ЮЗ - юго-западный, З - западный, СЗ - северо-западный.
Видимость - горизонтальная дальность видимости в метрах или километрах. При видимости от 1 до 10 км при отсутствии осадков обычно наблюдается дымка, при ухудшении видимости до 1 км и менее - туман. В сухую погоду видимость может ухудшаться дымом, пылью или мглою.
Явления - указаны атмосферные явления, наблюдавшиеся в срок или в последний час перед сроком; фигурными скобками обозначены явления, наблюдавшиеся между сроками (за 1-3 часа до срока); квадратными скобками обозначены град или гололедные отложения с указанием их диаметра в мм.
Облачность - указаны через наклонную черту общая и нижняя облачность в баллах и высота нижней границы облаков в метрах; квадратными скобками обозначены формы облаков: Ci - перистые, Cs - перисто-слоистые, Cc - перисто-кучевые, Ac - высококучевые, As - высокослоистые, Sc - слоисто-кучевые, Ns - слоисто-дождевые, Cu - кучевые, Cb - кучево-дождевые. Подробнее классификацию облаков см. в Атласе облаков (PDF).
T - Температура воздуха - температура, измеренная на высоте 2 м над землей.
Td - Температура точки росы - температура, при понижении до которой содержащийся в воздухе водяной пар достигнет насыщения.
f - Относительная влажность воздуха - влажноcть воздуха, измеренная на высоте 2 м над землей.
Te - Эффективная температура - температура, которую ощущает одетый по сезону человек в тени. Характеристика душности погоды. При расчете учитывается влияние влажности воздуха и скорости ветра на теплоощущения человека.
Tes - Эффективная температура на солнце - температура, которую ощущает человек, с поправкой на солнечный нагрев. Характеристика знойности погоды. Зависит от высоты солнца над горизонтом, облачности и скорости ветра. Ночью, в пасмурную погоду, а также при ветре 12 м/с и более поправка равна нулю.
P - Атмосферное давление - приведенное к уровню моря атмосферное давление.
Po - Атмосферное давление - измеренное на уровне метеостанции атмосферное давление.
Tmin - Минимальная температура - минимум температуры воздуха на высоте 2 м над землей.
Tmax - Максимальная температура - максимум температуры воздуха на высоте 2 м над землей.
R - Количество осадков - Количество выпавших осадков за период времени, мм. При наведении курсора мыши на число - период времени, за который выпало указанное количество осадков.
R24 - Количество осадков - Количество выпавших осадков за 24 часа, мм.
S - Снежный покров - Высота снежного покрова, см. При наведении курсора мыши на число - состояние снежного покрова и степень покрытия местности в баллах.